This is the latest recevied weather packets stored in our database for station/object WD4IXD. If no packets are shown the sender has not sent any weather packets the latest 10 day(s).
| Time | Temp. | Humidity | Pressure | Rain* | Wind** | Luminosity | Snow |
|---|---|---|---|---|---|---|---|
| 1777478704 | 13.89° C | 53% | 1019 hPa | 0 mm | - | 334 W/m² | - |
| 1777478415 | 13.33° C | 53% | 1019.1 hPa | 0 mm | - | 320 W/m² | - |
| 1777478103 | 13.33° C | 54% | 1019.1 hPa | 0 mm | - | 512 W/m² | - |
| 1777477815 | 13.33° C | 54% | 1019.2 hPa | 0 mm | - | 577 W/m² | - |
| 1777477504 | 13.33° C | 56% | 1019.2 hPa | 0 mm | - | 608 W/m² | - |
| 1777477215 | 12.78° C | 59% | 1019.1 hPa | 0 mm | - | 557 W/m² | - |
| 1777476904 | 11.67° C | 59% | 1019.2 hPa | 0 mm | - | 573 W/m² | - |
| 1777476615 | 11.11° C | 61% | 1019.2 hPa | 0 mm | - | 566 W/m² | - |
| 1777476305 | 11.67° C | 61% | 1019.2 hPa | 0 mm | - | 570 W/m² | - |
| 1777476015 | 11.11° C | 63% | 1019.2 hPa | 0 mm | - | 561 W/m² | - |
| 1777475704 | 11.11° C | 64% | 1019.2 hPa | 0 mm | - | 554 W/m² | - |
| 1777475416 | 10.56° C | 66% | 1019.3 hPa | 0 mm | - | 543 W/m² | - |
| 1777475104 | 10° C | 67% | 1019.3 hPa | 0 mm | - | 499 W/m² | - |
| 1777474815 | 9.44° C | 69% | 1019.4 hPa | 0 mm | - | 411 W/m² | - |
| 1777474504 | 9.44° C | 70% | 1019.5 hPa | 0 mm | - | 350 W/m² | - |
| 1777474216 | 8.89° C | 72% | 1019.4 hPa | 0 mm | - | 336 W/m² | - |
| 1777473904 | 8.89° C | 74% | 1019.6 hPa | 0 mm | - | 329 W/m² | - |
| 1777473604 | 8.33° C | 76% | 1019.6 hPa | 0 mm | - | 353 W/m² | - |
| 1777473304 | 7.78° C | 78% | 1019.7 hPa | 0 mm | - | 353 W/m² | - |
| 1777473015 | 7.78° C | 79% | 1019.7 hPa | 0 mm | - | 346 W/m² | - |
| 1777472705 | 7.22° C | 80% | 1019.7 hPa | 0 mm | - | 234 W/m² | - |
| 1777472415 | 7.22° C | 81% | 1019.6 hPa | 0 mm | - | 346 W/m² | - |
| 1777472104 | 6.67° C | 82% | 1019.8 hPa | 0 mm | - | 329 W/m² | - |
| 1777471815 | 6.11° C | 83% | 1019.8 hPa | 0 mm | - | 142 W/m² | - |
| 1777471504 | 6.11° C | 83% | 1019.8 hPa | 0 mm | - | 72 W/m² | - |
* Rain latest hour (hover to see other rain measurements)
** Current wind speed in m/s (hover to see current wind gust speed)